星链-4010 (STARLINK-4010 )

导读

STARLINK-4010是美国太空探索技术公司(SpaceX)“星链”卫星互联网项目的组网卫星,于2022年6月17日发射升空,属于星链星座的一员,主要用于为全球范围提供低延迟、高速率的宽带互联网接入服务,依托低轨卫星星座架构,服务地面各类终端用户,推动全球卫星互联网的覆盖组网进程。

基本信息
目录编号:
52862
目录名称:
STARLINK-4010
国际标识:
2022-062AJ
轨道中心:
EARTH
卫星名称:
星链-4010
卫星全名:
星链-4010 (STARLINK-4010 )
卫星状态:
在轨 (已飞行1540 天)
发射日期:
2022-06-17 UTC
国别 :
美国 (US)
星等 :
--
轨道信息
数据来源 国际轨道数据
星历时间: 2026-09-03T21:29:04+0800
16小时前
查看轨道信息
半长轴: 6840.888km
偏心率: 0.0001181
轨道倾角: 53.160°
近地点辐角 90.504°
升交点赤经 292.791°
平近点角 269.610°
近地点: 461.943km
远地点: 463.559km
周期: 93.849分钟
每日圈数: 15.343841
详细信息
固有亮度:
5
最大亮度:
2.5
卫星平台:
Starlink v1.5
覆盖范围:
全球
运营商:
太空探索技术公司
运营商所在国:
美国
制造商(研发单位):
太空探索技术公司
制造商所在国:
美国
使用方式:
暂无
卫星简介
星链(Starlink)计划是由太空探索技术公司(SpaceX)提出的一个巨型低轨卫星互联网星座项目,计划在2019年至2024年间在太空搭建由约1.2万颗卫星组成的“星链”网络,其中1584颗将部署在地球上空550千米处的近地轨道,并从2020年开始工作。该卫星仍在工作。
2D轨道图
3D轨道图
轨道高度分析图
轨道倾角分析图
轨道综合分析图
查看轨道综合分析图
交会数据列表
事件ID 空间交会对象 最接近时刻(TCA) 交会距离 交会风险概率(CRP) 交会风险指数(CRI) 操作
CDM_260904-052405-286206-574222
2026-09-04T
05:24:42+0000
0.063 km
近距离
1.283074E-3 极高风险 0.97
CDM_260828-104905-286206-937821
2026-08-28T
10:49:33+0000
0.649 km
远距离
6.593265E-5 中风险 0.71
CDM_260904-170805-286206-574222
2026-09-04T
17:08:09+0000
0.884 km
远距离
2.401004E-5 中风险 0.63
CDM_260829-120604-004205-286222
2026-08-29T
12:06:50+0000
1.228 km
极远距离
8.317475E-6 低风险 0.53
CDM_260904-022904-283705-286222
2026-09-04T
02:29:43+0000
1.884 km
极远距离
3.221831E-6 低风险 0.45
CDM_260904-153405-286206-574222
2026-09-04T
15:34:21+0000
1.837 km
极远距离
2.195936E-6 低风险 0.42
CDM_260904-035005-286206-574222
2026-09-04T
03:50:55+0000
2.051 km
极远距离
1.66586E-6 低风险 0.39
CDM_260904-065805-286206-574222
2026-09-04T
06:58:30+0000
2.215 km
极远距离
1.405157E-6 低风险 0.38
CDM_260904-112605-286205-397721
2026-09-04T
11:26:03+0000
2.715 km
极远距离
1.36153E-6 低风险 0.38
CDM_260904-130705-286205-386821
2026-09-04T
13:07:28+0000
2.824 km
极远距离
1.192861E-6 低风险 0.37